Regional Weather Roundup
Issued by NWS Little Rock, AR

Home | Current Version | Previous Version | Graphics & Text | Print | Product List | Glossary On
Versions: 1 2 3 4 5 6 7 8 9 10 11 12 13 14 15 16 17 18 19 20 21 22 23 24 25 26 27 28 29 30 31
000
ASUS44 KLZK 250705
RWRLZK

WEATHER ROUNDUP FOR ARKANSAS
NATIONAL WEATHER SERVICE LITTLE ROCK AR
200 AM CDT SUN JUN 25 2017

NOTE: "FAIR" INDICATES FEW OR NO CLOUDS BELOW 12,000 FEET WITH NO
SIGNIFICANT WEATHER AND/OR OBSTRUCTIONS TO VISIBILITY.

ARZ001-003-010-029-250800-
NORTHWEST ARKANSAS

CITY           SKY/WX    TMP DP  RH WIND       PRES   REMARKS
FAYETTEVILLE   CLOUDY    60  59  96 S3        30.26S
FORT SMITH     CLOUDY    72  62  71 N5        30.23R
HARRISON       CLOUDY    59  54  83 W3        30.25F
BENTONVILLE    CLOUDY    66  57  72 CALM      30.27R
ROGERS         CLOUDY    65  56  72 CALM      30.27S HAZE
SILOAM SPGS    CLOUDY    64  55  72 CALM      30.26R
HIGHFILL       CLOUDY    67  58  72 CALM      30.26S
$$

ARZ004-005-016-250800-
NORTH CENTRAL ARKANSAS

CITY           SKY/WX    TMP DP  RH WIND       PRES   REMARKS
BATESVILLE     CLOUDY    64  59  82 W3        30.21S
FLIPPIN        CLOUDY    61  54  77 CALM      30.21S
MTN HOME       CLOUDY    61  54  77 CALM      30.23
$$

ARZ040-041-250800-
WEST CENTRAL ARKANSAS

CITY           SKY/WX    TMP DP  RH WIND       PRES   REMARKS
MENA           CLOUDY    66  64  94 CALM      30.24S
MOUNT IDA      CLOUDY    67  65  93 CALM      30.20S
$$

ARZ009-017-025-026-028-250800-
NORTHEAST ARKANSAS

CITY           SKY/WX    TMP DP  RH WIND       PRES   REMARKS
CORNING        FAIR      64  57  77 N5        30.21R
JONESBORO      MOCLDY    70  56  61 N5        30.18F
WALNUT RIDGE   PTCLDY    66  57  72 NW7       30.20S
BLYTHEVILLE      N/A     68  63  84 NW3       30.19S
$$

ARZ022-023-033-042-044-250800-
CENTRAL ARKANSAS

CITY           SKY/WX    TMP DP  RH WIND       PRES   REMARKS
LITTLE ROCK    CLOUDY    69  61  75 CALM      30.20R
N LITTLE ROCK    N/A     69  58  65 N3        30.19S
JACKSONVILLE   CLOUDY    67  63  89 CALM      30.19R
CONWAY           N/A     68  63  83 NE3       30.19S
SEARCY         CLOUDY    68  65  90 CALM      30.21S
HOT SPRINGS    CLOUDY    71  60  68 CALM      30.21R
RUSSELLVILLE   PTCLDY    69  61  75 NW3       30.21S
CLINTON        MOCLDY    64  63  94 CALM      30.23S
$$

ARZ036-250800-
EAST ARKANSAS

CITY           SKY/WX    TMP DP  RH WIND       PRES   REMARKS
WEST MEMPHIS   CLOUDY    69  64  84 CALM      30.16F
$$

ARZ050-053-066-070-073-250800-
SOUTHWEST ARKANSAS

CITY           SKY/WX    TMP DP  RH WIND       PRES   REMARKS
CAMDEN         CLOUDY    68  66  94 CALM      30.18S
TEXARKANA      CLOUDY    69  67  93 NE3       30.18S
EL DORADO      CLOUDY    71  67  87 CALM      30.18R
DE QUEEN       MOCLDY    68  68 100 CALM      30.18S
$$

ARZ056-057-069-250800-
SOUTHEAST ARKANSAS

CITY           SKY/WX    TMP DP  RH WIND       PRES   REMARKS
PINE BLUFF     CLOUDY    69  66  90 N3        30.18R
STUTTGART      CLOUDY    70  55  60 N5        30.19S
MONTICELLO     CLOUDY    70  66  87 CALM      30.18R

$$






USA.gov is the U.S. government's official web portal to all federal, state and local government web resources and services.